Location: ??
(34.9170°N, 135.5016°E)
Time: 11:54:45
(UTC+00:00)

Cosmos 1300 - Pass Details

Date: 29 October 2020
Orbit: 511 x 513 km, 82.5° (Epoch: 26 November)

Event Time Altitude Azimuth Distance (km) Brightness Sun altitude
Exits shadow 20:41:45 - 325° (NW) 2,385 5.6 -7.8°
Reaches altitude 10° 20:44:07 10° 302° (WNW) 1,737 4.8 -7.4°
Maximum altitude 20:45:56 13° 273° (W) 1,543 4.5 -7.0°
Drops below altitude 10° 20:47:45 10° 244° (WSW) 1,730 4.9 -6.6°
Sets 20:50:49 0° 216° (SW) 2,609 6.0 -6.0°
